Flag for U.S.A. Weather past 2 weeks in Elizabeth, New Jersey, U.S.A.

Now
55 °F

Light rain. Mostly cloudy.


Feels Like: 54 °F
Forecast: 53 / 65 °F
Wind: 6 mph from Northeast

Location: Newark International Airport

Current Time: Jun 2, 2015 at 9:56:37 PM

Latest Report: Jun 2, 2015 at 8:51 PM


Visibility: 10 mi

Pressure: 30.15 "Hg

Humidity: 96%

Dew point: 54 °F

Location of ElizabethLocation

Historic Weather in Elizabeth — Graph

°F

Elizabeth temperature yesterday

Maximum temperature yesterday: 61 °F (at 12:51 AM)
Minimum temperature yesterday: 53 °F (at 11:51 PM)
Average temperature yesterday: 57 °F

Past Weeks' High & Low Weather Summary

 TemperatureHumidityPressure
High91 °F (May 26, 2:51 PM)100% (Jun 1, 8:51 AM)30.42 "Hg (Jun 1, 8:51 AM)
Low49 °F (May 23, 5:51 AM)18% (May 23, 2:51 PM)29.76 "Hg (May 19, 9:51 PM)
Average68 °F62%30.11 "Hg
* Reported May 18 7:51 PM — Jun 2 7:51 PM, Elizabeth, Weather by CustomWeather, © 2015

Note: Actual official high and low records may vary slightly from our data, if they occured in-between our weather recording intervals... More about our weather records

Advertising

Elizabeth weather history for previous 24 hours

 ConditionsComfort  
Time TempWeatherWind HumidityBarometerVisibility
7:51 PM
Tue, Jun 2
56 °FLight rain. Mostly cloudy.6 mph93%30.15 "Hg8 mi
6:51 PM56 °FLight rain. Mostly cloudy.No wind97%30.14 "Hg8 mi
5:51 PM54 °FLight rain. Mostly cloudy.6 mph92%30.13 "Hg10 mi
4:51 PM55 °FLight rain. More clouds than sun.7 mph90%30.12 "Hg10 mi
3:51 PMN/AN/AN/A30.13 "HgN/A
2:51 PM57 °FLight rain. Fog.9 mph87%30.14 "Hg6 mi
2:45 PM57 °FLight rain. Fog.12 mph88%30.14 "Hg6 mi
1:51 PM57 °FLight rain. Mostly cloudy.10 mph83%30.14 "Hg9 mi
12:51 PM56 °FLight rain. Mostly cloudy.14 mph84%30.14 "Hg10 mi
11:51 AM57 °FLight rain. Low clouds.10 mph93%30.14 "Hg7 mi
10:51 AM53 °FLight rain. Mostly cloudy.9 mph89%30.14 "Hg8 mi
9:51 AM52 °FDrizzle. Fog.8 mph93%30.14 "Hg4 mi
8:51 AM53 °FLight rain. Mostly cloudy.10 mph84%30.14 "Hg4 mi
7:51 AM52 °FLight rain. Fog.15 mph91%30.12 "Hg2 mi
6:51 AM51 °FLight rain. Fog.10 mph92%30.11 "Hg5 mi
5:51 AM51 °FLow clouds.14 mph96%30.09 "Hg9 mi
4:51 AM49 °FLight rain. Low clouds.15 mph94%30.09 "Hg10 mi
3:51 AM49 °FLow clouds.13 mph97%30.10 "Hg10 mi
2:51 AM50 °FLight rain. Mostly cloudy.12 mph94%30.13 "Hg8 mi
1:51 AM51 °FLight rain. Fog.15 mph92%30.11 "Hg4 mi
12:51 AM52 °FLight rain. Low clouds.14 mph94%30.14 "Hg10 mi
11:51 PM
Mon, Jun 1
53 °FLight rain. Overcast.13 mph94%30.15 "Hg9 mi
10:51 PM54 °FLight rain. Fog.13 mph94%30.14 "Hg3 mi
9:51 PM54 °FLight rain. Fog.13 mph94%30.14 "Hg3 mi
Weather by CustomWeather, © 2015

See weather overviewHow to use our weather pages